Terminal Aerodrome Forecast
Issued by NWS

Home | Current Version | Previous Version | Text Only | Print | Product List | Glossary On
Versions: 1 2 3 4 5 6 7 8 9 10 11 12 13 14 15 16 17 18 19 20 21 22 23 24
000
FTUS44 KOUN 302320
TAFLAW
TAF
KLAW 302320Z 3100/3124 01016G25KT P6SM SKC
     FM310100 04011KT P6SM SKC
     FM311000 05008KT P6SM SCT050 BKN250 PROB30 3117/3121 4SM -TSRA
      BKN040CB BKN100=

USA.gov is the U.S. government's official web portal to all federal, state and local government web resources and services.